Location: Vancouver
(49.2500°N, 123.1330°W)
Time: 02:49:34
(UTC-07:00)

Cosmos 676 Rocket - Visible Passes

Search period start: 19 September 2014 00:00
Search period end: 29 September 2014 00:00
Orbit: 756 x 785 km, 74.0° (Epoch: 17 September)

Date Brightness Start Highest point End Pass type
(mag) Time Alt. Az. Time Alt. Az. Time Alt. Az.
19 Sep 5.2 04:05:00 10° NNW 04:09:58 42° ENE 04:14:57 10° SE visible
19 Sep 4.7 05:47:22 10° NW 05:51:58 32° WSW 05:56:35 10° SSW visible
19 Sep 6.2 20:29:56 10° WSW 20:34:21 28° NW 20:38:49 10° N visible
20 Sep 5.9 03:28:58 10° N 03:33:30 29° NE 03:38:02 10° ESE visible
20 Sep 4.1 05:10:49 10° NNW 05:15:53 51° WSW 05:20:57 10° S visible
20 Sep 5.5 19:53:00 10° SW 19:57:53 41° WNW 20:02:47 10° NNE visible
21 Sep 6.4 02:53:04 10° N 02:56:55 20° NE 03:00:47 10° E visible
21 Sep 3.8 04:34:27 10° NNW 04:39:42 80° WSW 04:44:58 10° SSE visible
21 Sep 5.7 06:18:55 10° WNW 06:20:56 12° W 06:22:56 10° WSW visible
21 Sep 6.9 21:02:11 10° WNW 21:04:45 14° NW 21:07:20 10° N visible
22 Sep 6.8 02:17:24 10° N 02:20:15 15° NE 02:23:05 10° ENE visible
22 Sep 4.3 03:58:12 10° NNW 04:03:26 67° ENE 04:08:40 10° SSE visible
22 Sep 5.2 05:41:19 10° NW 05:45:02 20° W 05:48:45 10° SW visible
22 Sep 6.7 20:24:24 10° W 20:28:03 19° NW 20:31:44 10° N visible
23 Sep 7.0 01:42:40 10° NNE 01:43:28 10° NE 01:44:16 10° NE visible
23 Sep 5.0 03:22:04 10° NNW 03:27:04 43° ENE 03:27:41 42° ENE visible
23 Sep 4.9 05:04:28 10° NW 05:07:48 28° WNW 05:07:48 28° WNW visible
23 Sep 6.2 19:47:05 10° WSW 19:51:28 27° NW 19:55:52 10° N visible
24 Sep 5.8 02:46:01 10° N 02:50:05 29° NE 02:50:05 29° NE visible
24 Sep 5.3 04:27:55 10° NNW 04:30:17 26° NW 04:30:17 26° NW visible
25 Sep 6.3 02:10:07 10° N 02:13:10 20° NE 02:13:10 20° NE visible
25 Sep 5.7 03:51:32 10° NNW 03:53:24 23° NNW 03:53:24 23° NNW visible
25 Sep 6.8 20:19:24 10° WNW 20:21:52 13° NW 20:24:21 10° NNW visible
26 Sep 6.7 01:34:25 10° N 01:36:36 15° NNE 01:36:36 15° NNE visible
26 Sep 6.1 03:15:16 10° NNW 03:16:51 20° NNW 03:16:51 20° NNW visible
26 Sep 6.6 19:41:34 10° W 19:45:10 19° NW 19:48:47 10° N visible
27 Sep 6.9 00:59:27 10° NNE 01:00:13 11° NNE 01:00:13 11° NNE visible
27 Sep 6.4 02:39:07 10° NNW 02:40:29 18° N 02:40:29 18° N visible
28 Sep 6.6 02:03:04 10° N 02:04:15 16° N 02:04:15 16° N visible
